Location: Byszew
(52.1813°N, 19.2693°E)
Time: 06:56:43
(UTC+00:00)

NOAA 18 - Pass Details

Date: 30 June 2022
Orbit: 839 x 860 km, 98.9° (Epoch: 15 August)

Event Time Altitude Azimuth Distance (km) Brightness Sun altitude
Exits shadow 21:08:48 - 199° (SSW) 2,800 7.5 -11.7°
Reaches altitude 10° 21:09:44 10° 203° (SSW) 2,478 7.2 -11.8°
Maximum altitude 21:14:36 32° 266° (W) 1,447 6.6 -12.0°
Drops below altitude 10° 21:19:32 10° 328° (NNW) 2,505 9.1 -12.3°
Sets 21:22:12 0° 339° (NNW) 3,449 10.5 -12.5°
